User: anonymous   Login
Location: Ridgway Nature & Science Center
(38.1460°N, 107.7553°W)
Time: 23:31:38
(UTC-06:00)
Language:

Hubble Space Telescope - Orbit

View from above orbital plane
View from above orbital plane
View from above satellite
View from above satellite

Ground track
Ground track

The orbit data is extracted from the following two-line orbital elements,

1 20580U 90037B   22270.88464630  .00002737  00000-0  14938-3 0  9993
2 20580  28.4694 209.9045 0002624  63.3591 353.2319 15.10925152581720
Epoch (UTC): 27 September 2022 21:13:53
Eccentricity: 0.0002624
inclination: 28.4694°
perigee height: 531 km
apogee height: 535 km
right ascension of ascending node: 209.9045°
argument of perigee: 63.3591°
revolutions per day: 15.10925152
mean anomaly at epoch: 353.2319°
orbit number at epoch: 58172

The dashed part of the orbit path shows where the satellite is in the earth's shadow,  

DLR